Regional Weather Roundup
Issued by NWS Albany, NY

Home | Current Version | Previous Version | Graphics & Text | Print | Product List | Glossary On
Versions: 1 2 3 4 5 6 7 8 9 10 11 12 13 14 15 16 17 18 19 20 21 22 23 24 25 26 27 28 29 30 31 32 33 34 35 36 37 38 39 40 41 42 43 44 45 46 47 48 49 50
000
ASUS41 KALY 051410
RWRALY

NEW YORK STATE HOURLY WEATHER ROUNDUP
NATIONAL WEATHER SERVICE ALBANY NY
1000 AM EDT SUN JUL 05 2015

NOTE: "FAIR" INDICATES FEW OR NO CLOUDS BELOW 12,000 FEET WITH NO
SIGNIFICANT WEATHER AND/OR NO OBSTRUCTIONS TO VISIBILITY.

NYZ032-033-038>043-046>054-057>066-NYZ062>081-051500-
EAST


CITY           SKY/WX    TMP DP  RH WIND       PRES   REMARKS
ALBANY         MOSUNNY   72  61  68 CALM      30.12S
GLENS FALLS    CLOUDY    63  60  90 SE7       30.11S FOG
POUGHKEEPSIE   SUNNY     70  62  76 CALM      30.12F
NEWBURGH       SUNNY     72  64  78 CALM      30.14S
MONTGOMERY     SUNNY     73  63  70 SW3       30.13S
WHITE PLAINS   MOSUNNY   73  62  68 NW6       30.13R
ISLIP          PTSUNNY   76  60  57 W3        30.11R
NEW YORK CITY  PTSUNNY   74  61  63 NW5       30.12S
CENTRAL PARK   MOSUNNY   73  59  61 W3        30.16R
$$

NYZ005>009-017-018-044>046-055-056-051500-
CENTRAL


CITY           SKY/WX    TMP DP  RH WIND       PRES   REMARKS
FULTON         MOSUNNY   69  60  73 W7        30.13S
SYRACUSE       MOSUNNY   71  60  68 W8        30.13S
ROME           SUNNY     68  59  73 VRB5      30.14F
ELMIRA         SUNNY     68  59  73 SW6       30.15F
BINGHAMTON     MOSUNNY   65  59  81 CALM      30.18S
MONTICELLO     MOSUNNY   66  61  82 NW6       30.17F
$$

NYZ026>034-041>043-051500-
NORTH


CITY           SKY/WX    TMP DP  RH WIND       PRES   REMARKS
WATERTOWN      SUNNY     69  60  73 SW10      30.10S
FORT DRUM      NOT AVBL
MASSENA        SUNNY     70  60  70 VRB3      30.08S
SARANAC LAKE   SUNNY     66  58  75 SW7       30.10F
PLATTSBURGH    SUNNY     67  62  84 SE9       30.05F
$$

NYZ001>004-010>016-019>021-051500-
WEST


CITY           SKY/WX    TMP DP  RH WIND       PRES   REMARKS
NIAGARA FALLS  SUNNY     71  61  70 SW6       30.13F
BUFFALO        SUNNY     70  58  65 W7        30.15S
DUNKIRK        SUNNY     71  55  56 CALM      30.15F
JAMESTOWN      SUNNY     64  55  72 CALM      30.19S
WELLSVILLE     SUNNY     68  58  70 MISG      30.21S
ROCHESTER      SUNNY     70  60  70 SW8       30.14F
PENN YAN       SUNNY     69  59  70 VRB3      30.16S
$$

             KEY
       WCI = WIND CHILL INDEX
       VSB = VISIBILITY
       HX  = HEAT INDEX
$$


USA.gov is the U.S. government's official web portal to all federal, state and local government web resources and services.